Regional Weather Roundup
Issued by NWS

Home | Current Version | Previous Version | Text Only | Print | Product List | Glossary On
Versions: 1 2 3 4 5 6 7 8 9 10 11 12 13 14 15 16 17 18 19 20 21 22 23 24 25 26 27 28 29 30 31 32 33 34 35 36 37 38 39 40 41 42 43 44 45 46 47 48 49 50
000
ASUS43 KLSX 171507
RWRMO

WEATHER SUMMARY FOR MISSOURI
NATIONAL WEATHER SERVICE SPRINGFIELD MO
1000 AM CDT THU AUG 17 2017

NOTE: "FAIR" INDICATES FEW OR NO CLOUDS BELOW 12,000 FEET WITH NO
       SIGNIFICANT WEATHER AND/OR OBSTRUCTIONS TO VISIBILITY.
       CURRENT SKY AND/OR WEATHER CONDITIONS ARE NOT AVAILABLE FOR
       CHILLICOTHE AND FARMINGTON.

MOZ001>031-035>038-043-044-053-054-171600-
...NORTHERN AND WESTERN MISSOURI...

CITY           SKY/WX    TMP DP  RH WIND       PRES   REMARKS
KANSAS CTY INT MOSUNNY   73  65  75 W12       29.96R
KANSAS C DTWN  CLOUDY    74  66  76 W10       29.95R
LEE`S SUMMIT   CLOUDY    70  66  87 W9        29.97R
ST JOSEPH      SUNNY     72  65  78 NW12      29.94R
CHILLICOTHE      N/A     73  66  78 VRB7      29.92R
KIRKSVILLE     MOSUNNY   73  64  73 W10       29.89R

$$
MOZ066>068-077>081-088>096-101>105-171600-
...SOUTHWEST MISSOURI...

CITY           SKY/WX    TMP DP  RH WIND       PRES   REMARKS
SPRINGFIELD    CLOUDY    72  70  93 W9        30.00R
JOPLIN         CLOUDY    75  72  90 W6        30.01R
BRANSON        CLOUDY    72  68  88 W9        30.03R

$$
MOZ032>034-039>042-045>050-055>058-069>072-171600-
...CENTRAL MISSOURI...

CITY           SKY/WX    TMP DP  RH WIND       PRES   REMARKS
COLUMBIA       CLOUDY    72  69  90 SW10      29.94R
JEFFERSON CITY CLOUDY    73  71  93 SW7       29.94R
ROLLA          CLOUDY    73  69  87 SW13      29.97R
SEDALIA        CLOUDY    73  69  87 W8        29.96R
WHITEMAN AFB   PTSUNNY   73  71  92 W6        29.94R
WARRENSBURG    CLOUDY    72  64  78 W7        29.95R
OSAGE BEACH    CLOUDY    71  68  90 SW8       29.98R

$$
MOZ051-052-059>065-171600-
...EAST CENTRAL MISSOURI...

CITY           SKY/WX    TMP DP  RH WIND       PRES   REMARKS
ST LOUIS INTL  PTSUNNY   77  69  76 W18       29.91R
SPIRIT OF STL  PTSUNNY   77  70  79 W14       29.90R
ST CHARLES     PTSUNNY   76  69  79 SW14      29.90R

$$
MOZ072>076-082>087-097>100-106>115-171600-
...SOUTH CENTRAL AND SOUTHEAST MISSOURI...

CITY           SKY/WX    TMP DP  RH WIND       PRES   REMARKS
CAPE GIRARDEAU CLOUDY    75  71  87 SW9       29.95S
FARMINGTON     CLOUDY    72  69  90 VRB5      29.96S
POPLAR BLUFF   LGT RAIN  74  73  97 S5        29.96S
WEST PLAINS    CLOUDY    71  68  90 W7        30.01F

$$


USA.gov is the U.S. government's official web portal to all federal, state and local government web resources and services.